Terug naar catalogus

KUIPER-00274

ActiefCommunicatieLEO
NORAD 67792·PAYLOAD·🇺🇸 United States

Gelanceerd Feb 12, 2026 vanaf Guiana Space Centre

Loading…

Volgende Passages (komende 24 uur)

TLE

VersSource: CelesTrak SupGP

Epoch: Sep 14, 2026, 21:41 UTC

1 67792C 26030AE  26257.90393519  .00004654  00000+0  60923-3 0  2571
2 67792  51.9005  86.4253 0000701 106.0962  14.9779 14.79927229    13

Volg KUIPER-00274 in realtime met AllMySat

Download on the App Store